User: anonymous   Login
Location: Cantaing
(50.1487°N, 3.1675°E)
Time: 22:13:17
(UTC+00:00)
Language:

USA 32 - Orbit

View from above orbital plane
View from above orbital plane
View from above satellite
View from above satellite

Ground track
Ground track

The orbit is defined by the following mean orbital elements,

1 19460U          26069.38413958 +.00000000 +00000-0 +77303-4 0 00001
2 19460  84.9919 170.5009 0004809  76.3000 283.8728 14.34415095    05
Epoch (UTC): 10 March 2026 09:13:09
Eccentricity: 0.0004809
inclination: 84.9919°
perigee height: 774 km
apogee height: 780 km
right ascension of ascending node: 170.5009°
argument of perigee: 76.3000°
revolutions per day: 14.34415095
mean anomaly at epoch: 283.8728°

The dashed part of the orbit path shows where the satellite is in the earth's shadow,  

DLR